Location: Bacea
(45.9500°N, 22.6667°E)
Time: 06:35:59
(UTC+00:00)

Cosmos 1953 - Pass Details

Date: 04 June 2022
Orbit: 533 x 555 km, 82.5° (Epoch: 03 July)

Event Time Altitude Azimuth Distance (km) Brightness Sun altitude
Rises 22:45:00 0° 338° (NNW) 2,711 6.9 -21.4°
Reaches altitude 10° 22:47:31 10° 323° (NW) 1,809 5.6 -21.4°
Maximum altitude 22:50:35 22° 272° (W) 1,211 4.0 -21.3°
Enters shadow 22:50:48 22° 267° (W) 1,214 3.9 -21.3°
